Regional Weather Roundup
Issued by NWS

Home | Current Version | Previous Version | Text Only | Print | Product List | Glossary On
Versions: 1 2 3 4 5 6 7 8 9 10 11 12 13 14 15 16 17 18 19 20 21 22 23 24 25 26 27 28 29 30 31 32 33 34 35 36 37 38 39 40 41 42 43 44 45 46 47 48 49 50
122
ASUS44 KJAN 171810
RWRMS

MISSISSIPPI HOURLY WEATHER ROUNDUP
NATIONAL WEATHER SERVICE JACKSON MS
100 PM CDT WED SEP 17 2014

NOTE: "FAIR: INDICATES FEW OR NO CLOUDS BELOW 12,000 FEET WITH NO
SIGNIFICANT WEATHER AND/OR OBSTRUCTIONS TO VISIBILITY.

MSZ001>002-007>008-010>013-018>021-025>028-034>036-171900-
NORTHWEST MISSISSIPPI

CITY           SKY/WX    TMP DP  RH WIND       PRES   REMARKS
CLARKSDALE     FAIR      81  68  65 CALM      30.00F
CLEVELAND      FAIR      85  70  59 CALM      29.97F HX  90
GREENWOOD      FAIR      86  67  52 VRB3      29.97F
6HR MIN TEMP:  67; 6HR MAX TEMP:  86;

GREENVILLE     FAIR      88  67  49 VRB3      29.96F HX  91
6HR MIN TEMP:  67; 6HR MAX TEMP:  88;

GRENADA        FAIR      81  64  57 E7        29.99F
OLIVE BRANCH   CLOUDY    70  64  83 E6        30.01F
OXFORD         FAIR      75  64  69 N6        30.02F
TUNICA         FAIR      77  63  61 NE5       30.00F
$$

MSZ003>006-009-014>017-022>024-029>033-037>039-171900-
NORTHEAST MISSISSIPPI

CITY           SKY/WX    TMP DP  RH WIND       PRES   REMARKS
COLUMBUS AFB   FAIR      82  64  54 NE8       29.98F
6HR MIN TEMP:  66; 6HR MAX TEMP:  83;

CORINTH        FAIR      75  59  57 VRB5      30.01F
GOLDN TRIANGLE MOSUNNY   88  66  48 N6        30.00F HX  90
STARKVILLE     FAIR      81  64  57 NE3       29.99F
TUPELO         FAIR      78  62  57 CALM      30.00F
6HR MIN TEMP:  62; 6HR MAX TEMP:  79;

$$

MSZ040-058-171900-
CENTRAL MISSISSIPPI

CITY           SKY/WX    TMP DP  RH WIND       PRES   REMARKS
JACKSON INTL   PTSUNNY   87  68  52 CALM      29.97F HX  90
6HR MIN TEMP:  68; 6HR MAX TEMP:  89;

JACKSON HAWKNS FAIR      87  68  52 CALM      29.98F HX  90
6HR MIN TEMP:  70; 6HR MAX TEMP:  89;

MERIDIAN KEY   FAIR      89  64  43 NW5       29.97F HX  90
6HR MIN TEMP:  68; 6HR MAX TEMP:  89;

MERIDIAN NAS   FAIR      87  67  51 CALM      29.98F HX  90
6HR MIN TEMP:  69; 6HR MAX TEMP:  87;

RAYMOND        MOCLDY    90  84  84 CALM      29.97F HX 115
VICKSBURG      FAIR      90  67  46 E5        29.96F HX  93
6HR MIN TEMP:  65; 6HR MAX TEMP:  92;

$$

MSZ059>079-171900-
SOUTH MISSISSIPPI

CITY           SKY/WX    TMP DP  RH WIND       PRES   REMARKS
BROOKHAVEN     MOCLDY    88  70  55 S7        29.99F HX  92
HATTIESBURG    FAIR      88  69  53 S3        29.97F HX  92
6HR MIN TEMP:  69; 6HR MAX TEMP:  89;

MCCOMB         CLOUDY    85  71  63 VRB3      29.97F HX  90
6HR MIN TEMP:  71; 6HR MAX TEMP:  86;

NATCHEZ        FAIR      84  72  65 E5        29.98F
6HR MIN TEMP:  70; 6HR MAX TEMP:  84;

PINE BELT      FAIR      88  66  48 SE5       29.99F HX  90
6HR MIN TEMP:  66; 6HR MAX TEMP:  88;

$$

MSZ080>082-171900-
COASTAL MISSISSIPPI

CITY           SKY/WX    TMP DP  RH WIND       PRES   REMARKS
BAY ST LOUIS   MOSUNNY   82  72  69 E3        29.96F
BILOXI         FAIR      87  71  59 VRB2      29.95F HX  92
6HR MIN TEMP:  72; 6HR MAX TEMP:  87;

PASCAGOULA     FAIR      86  70  58 CALM      29.94F HX  90
6HR MIN TEMP:  71; 6HR MAX TEMP:  89;

GULFPORT       FAIR      87  71  58 VRB3      29.94F HX  93
6HR MIN TEMP:  72; 6HR MAX TEMP:  88;

$$



USA.gov is the U.S. government's official web portal to all federal, state and local government web resources and services.